Precipitable_Water
0.79 0.77 0.75 0.72 0.70 0.70 0.69 0.69 0.70 0.69 0.68 0.68 0.67 0.67 0.68 0.69 0.69 0.67 0.66 0.64 0.63 0.62 0.62 0.61 0.61 0.60 0.60 0.60 0.61 0.61 0.60 0.60 0.61 0.62 0.61 0.62 0.61 0.61 0.60 0.61 0.61 0.61
0.76 0.75 0.73 0.71 0.69 0.69 0.69 0.69 0.68 0.67 0.67 0.67 0.68 0.68 0.68 0.67 0.66 0.66 0.64 0.62 0.62 0.61 0.61 0.60 0.59 0.59 0.58 0.58 0.59 0.58 0.58 0.58 0.57 0.60 0.59 0.59 0.59 0.60 0.60 0.61 0.61 0.63
0.74 0.72 0.70 0.68 0.67 0.67 0.68 0.69 0.68 0.68 0.67 0.67 0.68 0.68 0.67 0.67 0.65 0.65 0.64 0.62 0.60 0.59 0.58 0.58 0.57 0.56 0.56 0.56 0.56 0.56 0.55 0.55 0.54 0.56 0.56 0.56 0.58 0.58 0.59 0.60 0.60 0.61
0.73 0.71 0.70 0.69 0.68 0.67 0.68 0.68 0.68 0.68 0.68 0.66 0.66 0.66 0.66 0.66 0.64 0.62 0.61 0.60 0.57 0.56 0.56 0.55 0.54 0.54 0.54 0.53 0.53 0.52 0.52 0.51 0.52 0.52 0.51 0.52 0.54 0.54 0.55 0.57 0.57 0.58
0.72 0.71 0.71 0.70 0.69 0.69 0.68 0.67 0.66 0.67 0.66 0.65 0.65 0.65 0.63 0.62 0.60 0.59 0.58 0.57 0.55 0.53 0.53 0.51 0.51 0.50 0.50 0.49 0.48 0.46 0.46 0.45 0.46 0.45 0.44 0.44 0.47 0.47 0.48 0.50 0.50 0.50
0.73 0.72 0.71 0.69 0.69 0.67 0.66 0.65 0.64 0.64 0.63 0.62 0.62 0.62 0.60 0.59 0.57 0.56 0.54 0.53 0.51 0.50 0.48 0.47 0.45 0.44 0.43 0.42 0.41 0.39 0.39 0.38 0.38 0.38 0.37 0.37 0.38 0.41 0.42 0.43 0.44 0.43
0.71 0.70 0.68 0.68 0.67 0.66 0.64 0.63 0.62 0.62 0.61 0.60 0.60 0.58 0.57 0.54 0.52 0.51 0.49 0.47 0.45 0.42 0.40 0.39 0.38 0.36 0.37 0.36 0.35 0.35 0.35 0.35 0.35 0.35 0.34 0.34 0.35 0.36 0.38 0.40 0.40 0.40
0.70 0.69 0.67 0.66 0.64 0.63 0.61 0.60 0.59 0.59 0.58 0.57 0.54 0.54 0.52 0.49 0.46 0.45 0.43 0.41 0.38 0.36 0.35 0.34 0.34 0.33 0.34 0.33 0.32 0.32 0.32 0.33 0.32 0.32 0.31 0.31 0.32 0.31 0.33 0.35 0.36 0.36
0.68 0.66 0.65 0.63 0.61 0.60 0.59 0.58 0.57 0.55 0.54 0.51 0.50 0.48 0.47 0.45 0.42 0.40 0.39 0.37 0.35 0.34 0.33 0.32 0.32 0.31 0.32 0.31 0.30 0.30 0.29 0.30 0.31 0.30 0.29 0.28 0.28 0.28 0.29 0.31 0.31 0.32
0.65 0.64 0.62 0.60 0.58 0.58 0.56 0.55 0.55 0.53 0.51 0.49 0.46 0.44 0.42 0.41 0.40 0.37 0.35 0.33 0.32 0.31 0.30 0.30 0.29 0.29 0.28 0.29 0.28 0.28 0.28 0.28 0.28 0.29 0.29 0.28 0.27 0.27 0.28 0.29 0.29 0.29
0.63 0.62 0.60 0.58 0.57 0.56 0.54 0.53 0.51 0.50 0.48 0.45 0.43 0.41 0.40 0.38 0.37 0.35 0.33 0.30 0.29 0.28 0.28 0.27 0.28 0.27 0.26 0.26 0.26 0.27 0.27 0.28 0.28 0.28 0.28 0.28 0.28 0.29 0.29 0.29 0.29 0.29
0.62 0.60 0.58 0.57 0.55 0.54 0.52 0.50 0.49 0.47 0.45 0.43 0.41 0.38 0.37 0.35 0.33 0.31 0.30 0.28 0.27 0.27 0.27 0.28 0.28 0.27 0.27 0.26 0.26 0.27 0.27 0.27 0.27 0.28 0.28 0.28 0.29 0.29 0.29 0.30 0.29 0.30
0.59 0.58 0.57 0.56 0.54 0.53 0.51 0.48 0.46 0.44 0.41 0.39 0.38 0.35 0.33 0.32 0.30 0.29 0.28 0.27 0.26 0.27 0.27 0.27 0.27 0.27 0.26 0.26 0.26 0.27 0.27 0.27 0.27 0.28 0.28 0.28 0.29 0.29 0.29 0.29 0.30 0.30
0.59 0.59 0.57 0.55 0.54 0.51 0.48 0.45 0.43 0.41 0.38 0.37 0.35 0.33 0.31 0.29 0.28 0.27 0.27 0.26 0.26 0.26 0.27 0.28 0.27 0.26 0.26 0.26 0.27 0.27 0.27 0.27 0.27 0.27 0.27 0.27 0.28 0.28 0.29 0.29 0.29 0.29
0.59 0.58 0.57 0.54 0.51 0.48 0.45 0.42 0.40 0.38 0.36 0.34 0.33 0.31 0.30 0.28 0.27 0.26 0.25 0.24 0.25 0.25 0.26 0.27 0.26 0.26 0.27 0.27 0.26 0.26 0.28 0.27 0.27 0.27 0.27 0.26 0.27 0.27 0.28 0.29 0.29 0.30
0.58 0.56 0.54 0.51 0.48 0.44 0.42 0.40 0.38 0.36 0.34 0.32 0.31 0.30 0.29 0.28 0.27 0.26 0.25 0.24 0.23 0.24 0.25 0.26 0.26 0.26 0.27 0.26 0.27 0.26 0.26 0.26 0.26 0.26 0.27 0.26 0.26 0.26 0.27 0.28 0.29 0.30
0.56 0.53 0.51 0.47 0.45 0.42 0.40 0.37 0.35 0.34 0.32 0.31 0.29 0.28 0.27 0.27 0.26 0.24 0.24 0.24 0.24 0.24 0.24 0.25 0.26 0.26 0.26 0.26 0.25 0.25 0.26 0.25 0.25 0.25 0.26 0.27 0.27 0.27 0.26 0.27 0.28 0.30
0.52 0.50 0.47 0.44 0.42 0.38 0.36 0.35 0.34 0.32 0.30 0.29 0.28 0.27 0.27 0.26 0.25 0.24 0.24 0.24 0.25 0.25 0.25 0.25 0.25 0.26 0.25 0.25 0.25 0.25 0.25 0.25 0.27 0.27 0.27 0.27 0.27 0.27 0.28 0.29 0.29 0.29
0.50 0.47 0.45 0.41 0.38 0.36 0.34 0.33 0.31 0.30 0.29 0.27 0.26 0.27 0.26 0.24 0.24 0.24 0.23 0.24 0.24 0.24 0.24 0.25 0.25 0.25 0.25 0.25 0.24 0.24 0.25 0.26 0.27 0.27 0.27 0.28 0.28 0.29 0.29 0.29 0.30 0.30
0.46 0.43 0.39 0.37 0.35 0.33 0.32 0.31 0.30 0.29 0.28 0.28 0.27 0.26 0.25 0.24 0.24 0.23 0.23 0.23 0.24 0.24 0.24 0.25 0.25 0.25 0.25 0.25 0.24 0.24 0.25 0.26 0.27 0.28 0.28 0.28 0.28 0.29 0.30 0.30 0.31 0.31
0.41 0.38 0.36 0.34 0.33 0.32 0.31 0.30 0.29 0.28 0.27 0.27 0.26 0.25 0.24 0.23 0.22 0.22 0.23 0.23 0.24 0.24 0.25 0.24 0.25 0.25 0.25 0.25 0.24 0.24 0.26 0.27 0.28 0.28 0.28 0.29 0.29 0.30 0.31 0.32 0.32 0.33
0.37 0.35 0.33 0.32 0.31 0.31 0.30 0.28 0.28 0.28 0.27 0.28 0.27 0.26 0.25 0.25 0.24 0.24 0.23 0.23 0.23 0.24 0.25 0.24 0.26 0.25 0.25 0.25 0.25 0.25 0.26 0.27 0.27 0.27 0.27 0.28 0.29 0.30 0.31 0.33 0.33 0.34
0.34 0.32 0.31 0.31 0.30 0.29 0.28 0.28 0.27 0.27 0.28 0.28 0.26 0.25 0.24 0.24 0.24 0.23 0.24 0.23 0.23 0.24 0.24 0.24 0.25 0.25 0.25 0.25 0.26 0.26 0.27 0.27 0.27 0.27 0.27 0.27 0.28 0.30 0.31 0.32 0.33 0.34
0.33 0.31 0.30 0.29 0.28 0.27 0.27 0.28 0.28 0.28 0.28 0.28 0.26 0.25 0.24 0.24 0.24 0.23 0.23 0.23 0.23 0.23 0.24 0.24 0.25 0.26 0.25 0.25 0.27 0.28 0.29 0.28 0.27 0.27 0.27 0.27 0.28 0.30 0.31 0.32 0.33 0.34
0.32 0.31 0.29 0.28 0.27 0.27 0.28 0.27 0.27 0.27 0.28 0.29 0.27 0.27 0.25 0.25 0.24 0.23 0.23 0.23 0.23 0.24 0.24 0.24 0.25 0.26 0.26 0.26 0.28 0.29 0.29 0.30 0.28 0.27 0.26 0.27 0.28 0.29 0.31 0.32 0.33 0.34
0.32 0.30 0.30 0.29 0.28 0.28 0.28 0.28 0.29 0.28 0.28 0.28 0.27 0.27 0.25 0.25 0.24 0.23 0.22 0.22 0.23 0.23 0.24 0.25 0.25 0.26 0.26 0.27 0.28 0.29 0.29 0.30 0.29 0.28 0.27 0.27 0.28 0.29 0.29 0.31 0.32 0.33
Wind_Speed
12 12 12 12 12 12 13 13 13 14 14 15 15 16 16 16 17 17 17 18 18 19 19 20 20 21 21 22 22 22 22 22 23 23 23 23 24 24 24 25 25 26
12 12 12 12 12 12 13 13 13 14 14 15 15 16 16 17 17 18 18 19 19 20 20 21 21 21 22 22 23 23 23 23 23 24 24 24 24 24 25 25 26 26
12 12 12 12 12 12 12 13 13 14 15 15 16 16 17 17 18 18 19 19 20 20 21 21 22 22 22 23 23 23 23 24 24 25 25 25 25 25 25 26 26 26
12 12 12 12 12 12 12 13 14 15 15 16 16 17 17 18 18 19 19 20 20 21 22 22 22 23 23 23 23 24 24 24 25 25 26 26 26 27 27 27 27 27
12 12 12 12 12 12 13 13 14 15 15 16 16 17 18 18 19 19 20 21 21 22 22 23 23 23 24 24 24 24 24 25 25 26 26 26 27 27 27 28 28 28
12 12 11 11 12 12 13 13 14 15 15 16 17 17 18 19 20 20 21 21 22 23 23 24 24 24 24 24 24 24 24 24 25 26 26 26 27 27 28 28 29 29
11 11 11 11 12 12 12 13 14 15 15 16 17 18 19 19 20 21 22 22 23 23 24 24 24 24 24 24 24 24 25 25 25 26 26 27 27 28 28 29 29 30
11 11 11 11 11 12 12 13 14 15 15 16 17 18 19 20 21 21 22 23 23 23 24 24 24 24 24 24 25 25 25 25 26 26 26 27 27 28 29 29 30 30
11 10 11 11 11 11 12 13 14 15 16 17 18 19 19 20 21 22 22 23 23 24 24 24 24 24 24 24 24 25 25 25 25 26 26 27 27 28 29 29 30 30
10 10 10 10 11 12 12 13 14 15 16 17 18 18 19 20 21 22 23 23 23 23 23 23 24 24 24 24 24 24 25 25 25 26 26 27 27 28 29 29 30 30
9 10 10 10 11 12 12 13 14 15 16 17 18 18 19 20 21 22 22 23 23 23 22 22 23 23 23 24 24 24 25 25 26 26 27 27 28 29 29 30 30 31
9 10 10 10 11 12 13 13 14 15 16 17 18 18 19 20 21 21 22 22 21 21 22 22 22 23 24 24 25 25 26 26 27 27 28 29 29 30 30 31 31 32
9 10 10 10 11 12 12 13 14 15 16 17 18 18 19 20 20 20 20 20 21 21 21 22 23 24 24 25 26 27 27 27 28 29 29 30 30 31 31 32 32 33
9 9 9 10 11 11 12 13 14 15 16 16 17 18 19 19 19 19 19 20 20 21 22 22 23 24 26 27 27 28 28 29 29 30 30 31 31 32 32 32 33 33
9 9 9 10 11 11 12 13 14 15 15 16 16 17 17 18 18 19 19 20 20 21 22 23 24 25 27 28 28 29 29 29 30 30 31 31 32 32 33 33 33 34
9 9 10 10 10 11 12 13 13 14 14 15 16 16 17 17 18 19 19 20 21 22 23 24 25 26 28 29 29 29 29 30 30 31 31 32 32 33 33 34 34 35
9 9 9 10 10 11 11 12 13 13 14 14 15 15 16 17 18 19 20 21 22 23 24 24 25 27 29 29 30 30 30 30 31 31 32 32 33 34 35 35 36 36
8 8 8 9 10 10 11 11 12 12 13 14 14 15 16 17 19 20 21 22 23 23 24 25 26 28 29 30 31 31 32 31 31 32 33 33 34 35 36 36 37 37
8 8 8 9 9 10 10 11 11 12 12 13 14 15 17 18 19 20 21 22 23 24 25 25 26 28 30 31 31 32 33 32 32 33 34 34 35 36 36 37 37 38
8 8 8 8 9 9 9 10 11 11 12 13 14 16 17 18 20 21 22 23 23 24 25 25 27 29 30 31 32 33 33 33 33 33 34 35 36 36 37 37 38 38
8 8 8 8 8 8 9 9 10 11 12 14 15 16 18 19 20 21 22 23 24 24 25 26 27 29 31 32 33 34 34 33 33 33 34 35 35 36 37 37 38 38
7 7 7 7 7 7 8 9 10 12 13 14 15 17 18 19 20 21 22 23 24 25 26 27 28 30 31 32 33 34 33 33 33 34 34 35 35 36 36 36 37 38
6 6 6 6 7 7 8 10 11 12 13 15 16 17 18 19 20 21 22 23 24 26 27 27 28 30 31 32 33 34 33 33 33 34 34 35 35 35 36 36 37 38
6 5 5 6 6 7 9 10 11 12 14 15 16 17 18 19 20 21 22 24 25 26 27 28 28 30 31 32 33 34 33 32 33 33 34 34 35 35 35 36 37 39
5 5 5 6 7 8 9 10 12 13 14 15 16 17 18 19 21 22 23 24 25 26 27 28 28 30 31 32 33 33 33 33 33 33 33 34 35 35 35 36 38 39
4 5 5 6 7 8 10 11 12 13 14 15 16 18 19 20 21 22 23 24 25 26 27 28 28 29 31 32 32 33 34 33 33 34 35 35 35 36 36 37 38 39
Wind_Direction
283 285 287 291 294 298 301 304 307 309 311 312 314 315 316 317 317 317 317 316 315 314 313 313 312 311 311 311 311 310 309 308 307 306 307 307 306 305 304 303 302 301
282 284 287 290 294 297 301 305 308 310 312 313 313 315 316 317 318 318 318 317 316 315 314 313 312 312 311 310 310 309 308 307 307 306 306 307 306 305 305 304 303 301
281 284 287 290 294 298 302 305 308 310 312 314 314 315 316 317 319 319 318 318 317 317 316 315 313 312 312 311 310 308 307 307 307 306 306 306 306 306 305 305 304 303
280 283 286 290 293 297 301 304 307 310 311 313 315 316 316 317 318 319 320 320 319 319 318 317 315 314 313 312 310 308 307 307 307 307 306 306 306 306 306 306 305 305
278 281 284 288 292 296 300 303 306 309 311 312 314 317 318 318 318 318 318 319 319 319 319 318 317 315 314 313 312 310 308 308 308 308 308 308 308 307 307 307 307 306
276 278 281 285 290 294 298 302 306 308 310 312 314 317 319 319 318 318 318 318 318 319 318 318 318 317 316 314 313 311 310 309 310 310 309 309 309 308 308 307 307 307
273 275 279 284 288 292 297 301 305 307 310 312 315 317 318 318 318 319 319 319 318 318 319 318 318 318 317 315 314 313 312 311 311 311 311 310 309 309 308 307 307 306
270 274 278 282 287 291 296 301 304 308 310 313 314 316 318 318 319 320 320 320 320 319 319 319 319 319 318 316 315 314 313 312 313 313 312 311 310 310 309 308 308 307
269 273 277 281 287 291 297 302 305 308 311 314 315 317 318 319 320 321 321 321 321 320 320 320 320 320 320 319 318 317 316 315 315 315 315 314 313 312 311 310 310 309
268 272 277 282 288 293 299 303 305 309 312 315 316 318 319 320 321 322 322 322 322 323 322 322 322 322 322 322 321 320 319 318 317 317 316 316 315 314 313 312 311 310
269 273 279 285 291 296 301 304 307 309 313 316 318 319 320 321 322 323 324 324 325 325 326 326 326 326 325 325 324 322 321 320 319 318 317 317 316 315 314 313 312 311
270 276 282 289 294 298 301 304 308 310 314 317 319 320 322 323 324 325 326 327 327 328 328 328 328 328 327 326 325 323 322 321 320 319 318 317 316 316 315 314 313 312
271 278 284 289 294 298 301 305 309 312 315 318 320 322 324 325 327 328 328 329 330 330 330 330 330 330 329 327 325 324 322 321 320 319 318 317 317 316 315 314 313 312
271 278 284 289 294 298 303 307 311 315 317 320 323 325 326 327 328 329 330 331 331 331 331 331 330 330 330 328 326 324 323 321 321 320 319 318 317 317 316 315 314 313
271 278 284 289 295 300 305 309 313 316 319 322 324 326 327 329 330 331 332 332 332 332 332 331 330 330 330 329 327 325 324 322 321 320 320 319 318 318 318 317 316 314
272 278 284 291 297 302 307 311 314 317 319 322 324 326 328 330 331 333 333 333 332 332 332 331 331 331 331 330 329 327 325 323 322 321 321 320 320 320 319 318 317 315
274 279 286 293 299 304 308 312 315 317 320 323 326 328 329 331 333 333 334 333 332 332 332 331 331 332 332 331 330 330 327 325 323 323 323 322 322 322 320 319 318 316
273 280 289 295 300 305 309 312 315 319 322 326 328 331 332 333 334 334 334 334 333 333 333 332 332 333 333 332 332 331 329 327 325 325 325 324 324 323 322 321 319 318
275 283 291 296 300 305 309 313 318 322 326 329 332 333 334 334 335 335 334 334 334 333 334 333 333 334 334 334 333 332 331 329 327 327 327 326 326 325 324 322 321 320
278 284 290 294 299 304 309 315 321 326 330 331 333 334 334 335 335 335 334 335 334 334 334 334 335 335 335 335 334 334 332 331 330 330 329 329 328 327 326 324 323 322
277 281 286 291 297 304 312 319 325 329 331 331 332 333 333 334 334 334 335 335 335 335 335 335 336 336 336 336 336 335 334 333 333 332 331 331 330 329 328 326 325 324
273 277 283 290 298 306 315 321 326 328 330 330 331 332 333 333 334 334 335 336 336 337 336 336 337 338 338 337 338 337 336 336 336 335 334 333 332 331 330 329 328 327
268 274 282 291 300 310 317 321 324 326 328 329 330 331 332 333 334 334 336 337 338 338 338 338 338 339 339 339 339 339 338 337 337 336 336 335 334 334 333 331 331 330
265 273 284 295 305 313 317 320 322 324 326 328 329 331 332 334 334 335 336 338 339 340 340 339 339 340 340 340 340 341 340 339 338 337 337 337 336 335 334 333 333 333
265 277 290 301 308 313 316 318 321 323 325 327 329 331 333 334 335 336 337 339 340 341 342 341 341 341 341 342 342 343 343 342 340 340 339 339 338 337 335 335 334 334
270 282 294 302 307 311 314 317 321 323 326 328 330 332 333 335 337 338 339 340 341 342 343 343 342 342 343 343 344 345 346 345 344 344 343 341 340 339 337 337 336 336